This is the latest recevied weather packets stored in our database for station/object IK6IHU-3. If no packets are shown the sender has not sent any weather packets the latest 10 day(s).
| Time | Temp. | Humidity | Pressure | Rain* | Wind** | Luminosity | Snow |
|---|---|---|---|---|---|---|---|
| 1778332532 | 22.22° C | 48% | 1016.1 hPa | 0 mm | - | 0 W/m² | - |
| 1778332472 | 21.67° C | 48% | 1016.1 hPa | 0 mm | - | 0 W/m² | - |
| 1778332412 | 21.67° C | 48% | 1016.1 hPa | 0 mm | - | 0 W/m² | - |
| 1778332352 | 21.67° C | 46% | 1015.9 hPa | 0 mm | - | 0 W/m² | - |
| 1778332292 | 21.67° C | 46% | 1016.3 hPa | 0 mm | - | 0 W/m² | - |
| 1778332232 | 21.67° C | 47% | 1015.8 hPa | 0 mm | - | 0 W/m² | - |
| 1778332172 | 21.67° C | 48% | 1016 hPa | 0 mm | - | 0 W/m² | - |
| 1778332112 | 21.67° C | 46% | 1016.2 hPa | 0 mm | - | 0 W/m² | - |
| 1778332052 | 21.67° C | 47% | 1016 hPa | 0 mm | - | 0 W/m² | - |
| 1778331992 | 21.67° C | 46% | 1015.9 hPa | 0 mm | - | 0 W/m² | - |
| 1778331932 | 21.67° C | 46% | 1016.1 hPa | 0 mm | - | 0 W/m² | - |
| 1778331872 | 21.67° C | 46% | 1016.1 hPa | 0 mm | - | 0 W/m² | - |
| 1778331812 | 21.67° C | 47% | 1016.1 hPa | 0 mm | - | 0 W/m² | - |
| 1778331752 | 21.67° C | 47% | 1016.1 hPa | 0 mm | - | 0 W/m² | - |
| 1778331692 | 21.67° C | 47% | 1016 hPa | 0 mm | - | 0 W/m² | - |
| 1778331632 | 22.22° C | 48% | 1016 hPa | 0 mm | - | 0 W/m² | - |
| 1778331572 | 21.67° C | 46% | 1016.2 hPa | 0 mm | - | 0 W/m² | - |
| 1778331512 | 22.22° C | 48% | 1016 hPa | 0 mm | - | 0 W/m² | - |
| 1778331452 | 21.67° C | 48% | 1016.1 hPa | 0 mm | - | 0 W/m² | - |
| 1778331392 | 21.67° C | 47% | 1016.4 hPa | 0 mm | - | 0 W/m² | - |
| 1778331332 | 21.67° C | 48% | 1016.4 hPa | 0 mm | - | 0 W/m² | - |
| 1778331272 | 21.67° C | 48% | 1016.2 hPa | 0 mm | - | 0 W/m² | - |
| 1778331212 | 21.67° C | 45% | 1016.1 hPa | 0 mm | - | 0 W/m² | - |
| 1778331152 | 22.22° C | 47% | 1016.1 hPa | 0 mm | - | 0 W/m² | - |
| 1778331092 | 21.67° C | 45% | 1016.3 hPa | 0 mm | - | 0 W/m² | - |
* Rain latest hour (hover to see other rain measurements)
** Current wind speed in m/s (hover to see current wind gust speed)